Weather History for Cushing, OK

Change the Weather History Date:

Sunday, November 6, 2011

  Actual Average Record
Temperature  
Mean Temperature 68 °F -  
Max Temperature 78 °F 61 °F 81 °F (1954)
Min Temperature 59 °F 39 °F 18 °F (1951)
Cooling Degree Days 4    
Growing Degree Days 18 (Base 50)    
Moisture  
Dew Point 54 °F    
Average Humidity 68    
Maximum Humidity 100    
Minimum Humidity 44    
Precipitation  
Precipitation 0.00 in - - ()
Sea Level Pressure  
Sea Level Pressure 29.91 in    
Wind  
Wind Speed 10 mph (South)    
Max Wind Speed 16 mph    
Max Gust Speed 24 mph    
Visibility 10 miles    
Events      
Averages and records for this station are not official NWS values.
T = Trace of Precipitation, MM = Missing Value Source: NWS Daily Summary

Daily Weather History Graph

Daily Weather History Graph

Search for Another Location

Airport:

Trip Planner

Search our weather history database for the weather conditions in past years. The results will help you decide how hot, cold, wet, or windy it might be!

Date:

Astronomy

Nov. 06, 2011 Rise Set
Actual Time 6:54 AM CST 5:26 PM CST
Civil Twilight 6:27 AM CST 5:53 PM CST
Nautical Twilight 5:56 AM CST 6:23 PM CST
Astronomical Twilight 5:26 AM CST 6:53 PM CST
Moon 3:06 PM CST (11/6) 3:07 AM CST (11/6)
Length of Visible Light 11h 26m
Length of Day
10h 32m
Waxing Gibbous, 86% of the Moon is Illuminated
Nov 6
Waxing Gibbous
Nov 10
Full
Nov 18
Last Quarter
Nov 25
New
Dec 2
First Quarter

Hourly Weather History & Observations

Time (CST) Temp. Dew Point Humidity Pressure Visibility Wind Dir Wind Speed Gust Speed Precip Events Conditions
12:15 AM 59.0 °F 44.6 °F 59% 29.84 in 10.0 mi South 12.7 mph 17.3 mph N/A   Clear
12:35 AM 59.0 °F 44.6 °F 59% 29.83 in 10.0 mi South 10.4 mph 16.1 mph N/A   Clear
12:55 AM 59.0 °F 44.6 °F 59% 29.83 in 10.0 mi South 12.7 mph 19.6 mph N/A   Clear
1:15 AM 59.0 °F 44.6 °F 59% 29.83 in 10.0 mi South 10.4 mph 21.9 mph N/A   Clear
1:35 AM 59.0 °F 44.6 °F 59% 29.83 in 10.0 mi South 10.4 mph 19.6 mph N/A   Clear
1:55 AM 59.0 °F 46.4 °F 63% 29.84 in 10.0 mi South 10.4 mph 20.7 mph N/A   Clear
1:15 AM 59.0 °F 46.4 °F 63% 29.84 in 10.0 mi South 12.7 mph 20.7 mph N/A   Scattered Clouds
1:35 AM 59.0 °F 46.4 °F 63% 29.84 in 10.0 mi South 13.8 mph 24.2 mph N/A   Scattered Clouds
1:55 AM 59.0 °F 48.2 °F 67% 29.84 in 10.0 mi South 10.4 mph 23.0 mph N/A   Scattered Clouds
2:15 AM 59.0 °F 48.2 °F 67% 29.84 in 10.0 mi South 9.2 mph 18.4 mph N/A   Clear
2:35 AM 59.0 °F 50.0 °F 72% 29.85 in 10.0 mi South 9.2 mph 18.4 mph N/A   Scattered Clouds
2:55 AM 59.0 °F 50.0 °F 72% 29.84 in 10.0 mi South 9.2 mph 17.3 mph N/A   Scattered Clouds
3:15 AM 59.0 °F 50.0 °F 72% 29.84 in 10.0 mi South 10.4 mph 17.3 mph N/A   Scattered Clouds
3:35 AM 59.0 °F 50.0 °F 72% 29.84 in 10.0 mi South 8.1 mph - N/A   Scattered Clouds
3:55 AM 60.8 °F 51.8 °F 72% 29.84 in 10.0 mi South 15.0 mph 20.7 mph N/A   Mostly Cloudy
4:15 AM 60.8 °F 51.8 °F 72% 29.84 in 10.0 mi South 11.5 mph 19.6 mph N/A   Mostly Cloudy
4:35 AM 60.8 °F 51.8 °F 72% 29.85 in 10.0 mi South 9.2 mph 19.6 mph N/A   Overcast
4:55 AM 60.8 °F 53.6 °F 77% 29.86 in 10.0 mi South 6.9 mph 18.4 mph N/A   Overcast
5:15 AM 60.8 °F 53.6 °F 77% 29.87 in 10.0 mi South 11.5 mph 17.3 mph N/A   Overcast
5:55 AM 60.8 °F 53.6 °F 77% 29.89 in 10.0 mi South 9.2 mph - N/A   Mostly Cloudy
6:15 AM 60.8 °F 53.6 °F 77% 29.89 in 10.0 mi South 8.1 mph - N/A   Scattered Clouds
6:35 AM 60.8 °F 53.6 °F 77% 29.90 in 10.0 mi South 5.8 mph - N/A   Clear
6:55 AM 59.0 °F 53.6 °F 82% 29.90 in 10.0 mi South 6.9 mph - N/A   Clear
7:15 AM 59.0 °F 53.6 °F 82% 29.91 in 10.0 mi South 6.9 mph - N/A   Clear
7:35 AM 59.0 °F 53.6 °F 82% 29.92 in 10.0 mi South 6.9 mph - N/A   Clear
7:55 AM 60.8 °F 55.4 °F 82% 29.93 in 10.0 mi South 8.1 mph - N/A   Clear
8:15 AM 60.8 °F 55.4 °F 82% 29.93 in 10.0 mi South 8.1 mph - N/A   Clear
8:35 AM 62.6 °F 55.4 °F 77% 29.94 in 10.0 mi South 10.4 mph - N/A   Clear
8:55 AM 64.4 °F 57.2 °F 77% 29.94 in 10.0 mi South 10.4 mph 16.1 mph N/A   Clear
9:15 AM 66.2 °F 57.2 °F 73% 29.95 in 10.0 mi South 13.8 mph 19.6 mph N/A   Scattered Clouds
9:35 AM 66.2 °F 57.2 °F 73% 29.95 in 10.0 mi South 9.2 mph 17.3 mph N/A   Mostly Cloudy
9:55 AM 66.2 °F 59.0 °F 78% 29.95 in 10.0 mi South 9.2 mph - N/A   Overcast
10:15 AM 68.0 °F 59.0 °F 73% 29.96 in 10.0 mi South 9.2 mph 18.4 mph N/A   Mostly Cloudy
10:35 AM 69.8 °F 57.2 °F 64% 29.96 in 10.0 mi SSW 10.4 mph 20.7 mph N/A   Scattered Clouds
10:55 AM 71.6 °F 55.4 °F 57% 29.96 in 10.0 mi South 12.7 mph 20.7 mph N/A   Mostly Cloudy
11:15 AM 71.6 °F 53.6 °F 53% 29.96 in 10.0 mi SSW 12.7 mph 20.7 mph N/A   Scattered Clouds
11:35 AM 73.4 °F 53.6 °F 50% 29.95 in 10.0 mi SSW 16.1 mph 21.9 mph N/A   Scattered Clouds
11:55 AM 73.4 °F 51.8 °F 47% 29.95 in 10.0 mi SSW 15.0 mph 20.7 mph N/A   Clear
12:15 PM 73.4 °F 53.6 °F 50% 29.94 in 10.0 mi SW 11.5 mph 20.7 mph N/A   Scattered Clouds
12:35 PM 75.2 °F 53.6 °F 47% 29.93 in 10.0 mi SSW 16.1 mph - N/A   Scattered Clouds
12:55 PM 75.2 °F 53.6 °F 47% 29.92 in 10.0 mi SW 11.5 mph - N/A   Clear
1:15 PM 77.0 °F 53.6 °F 44% 29.91 in 10.0 mi SSW 13.8 mph 21.9 mph N/A   Clear
1:35 PM 77.0 °F 53.6 °F 44% 29.91 in 10.0 mi SW 12.7 mph 18.4 mph N/A   Scattered Clouds
2:15 PM 77.0 °F 55.4 °F 47% 29.90 in 10.0 mi SSW 11.5 mph 18.4 mph N/A   Scattered Clouds
2:35 PM 75.2 °F 55.4 °F 50% 29.90 in 10.0 mi SSW 10.4 mph 18.4 mph N/A   Scattered Clouds
2:55 PM 78.8 °F 55.4 °F 44% 29.90 in 10.0 mi SSW 12.7 mph 17.3 mph N/A   Scattered Clouds
3:15 PM 78.8 °F 55.4 °F 44% 29.90 in 10.0 mi South 10.4 mph - N/A   Scattered Clouds
3:35 PM 77.0 °F 55.4 °F 47% 29.91 in 10.0 mi South 10.4 mph - N/A   Scattered Clouds
3:55 PM 77.0 °F 55.4 °F 47% 29.91 in 10.0 mi South 10.4 mph - N/A   Scattered Clouds
4:15 PM 77.0 °F 59.0 °F 54% 29.91 in 10.0 mi South 9.2 mph - N/A   Scattered Clouds
4:35 PM 73.4 °F 60.8 °F 65% 29.91 in 10.0 mi SSE 9.2 mph - N/A   Scattered Clouds
4:55 PM 71.6 °F 60.8 °F 69% 29.92 in 10.0 mi South 11.5 mph 18.4 mph N/A   Scattered Clouds
5:15 PM 71.6 °F 60.8 °F 69% 29.93 in 10.0 mi SSE 6.9 mph - N/A   Scattered Clouds
5:35 PM 69.8 °F 60.8 °F 73% 29.94 in 10.0 mi South 9.2 mph - N/A   Clear
5:55 PM 68.0 °F 60.8 °F 78% 29.95 in 10.0 mi South 6.9 mph - N/A   Clear
6:15 PM 68.0 °F 60.8 °F 78% 29.96 in 10.0 mi South 8.1 mph - N/A   Clear
6:35 PM 68.0 °F 60.8 °F 78% 29.97 in 10.0 mi South 4.6 mph - N/A   Clear
6:55 PM 66.2 °F 60.8 °F 83% 29.98 in 10.0 mi South 4.6 mph - N/A   Clear
7:15 PM 64.4 °F 60.8 °F 88% 29.98 in 10.0 mi South 3.5 mph - N/A   Clear
7:35 PM 64.4 °F 60.8 °F 88% 29.98 in 10.0 mi Calm Calm - N/A   Clear
7:55 PM 62.6 °F 60.8 °F 94% 29.98 in 7.0 mi Calm Calm - N/A   Clear
8:15 PM 60.8 °F 59.0 °F 94% 29.99 in 3.0 mi Calm Calm - N/A   Mist
8:35 PM 60.8 °F 60.8 °F 100% 30.00 in 3.0 mi Calm Calm - N/A   Mist
8:55 PM 60.8 °F 60.8 °F 100% 30.00 in 5.0 mi Calm Calm - N/A   Mostly Cloudy
9:15 PM 62.6 °F 60.8 °F 94% 30.00 in 7.0 mi Calm Calm - N/A   Mostly Cloudy
9:35 PM 62.6 °F 60.8 °F 94% 30.00 in 7.0 mi Calm Calm - N/A   Mostly Cloudy
9:55 PM 62.6 °F 60.8 °F 94% 30.00 in 7.0 mi Calm Calm - N/A   Scattered Clouds
10:15 PM 60.8 °F 59.0 °F 94% 30.00 in 4.0 mi Calm Calm - N/A   Scattered Clouds
10:35 PM 60.8 °F 59.0 °F 94% 30.00 in 3.0 mi Calm Calm - N/A   Scattered Clouds
10:55 PM 59.0 °F 59.0 °F 100% 30.00 in 4.0 mi Calm Calm - N/A   Mostly Cloudy